Location: Peterborough
(44.3091°N, 78.3197°W)
Time: 06:18:08
(UTC-04:00)

Vanguard 2 - Pass Details

Date: 31 March 2023
Orbit: 552 x 2926 km, 32.9° (Epoch: 04 June)

Event Time Altitude Azimuth Distance (km) Brightness Sun altitude
Rises 10:26:45 0° 275° (W) 6,640 11.9 35.2°
Reaches altitude 10° 10:32:08 10° 267° (W) 5,411 11.5 35.9°
Maximum altitude 10:44:31 31° 214° (SW) 3,196 11.0 37.7°
Drops below altitude 10° 10:53:16 10° 157° (SSE) 3,773 12.0 38.9°
Sets 10:56:17 0° 147° (SSE) 4,436 12.3 39.3°
